This demonstration page uses our WeatherBlox Daily Observations layout. Learn more.

Left ArrowRight Arrow

39.92423, -83.80882

Hourly Observations for January 26, 2015

Temp ( °F °C ) Dew Point ( °F °C ) Humidity (%) Winds ( mph kmh ) Pressure ( in mb ) Visibility ( mi km ) Precip ( " mm )
12:29 am 00:29 Cloudy with Light Snow 23 -5 21 -6 93 93 NNE 15 24 29.80 1009 2 2 0.00 0.03
12:33 am 00:33 Cloudy with Light Snow 23 -5 21 -6 93 93 NE 14 22 29.80 1009 2 3 0.00 0.03
12:56 am 00:56 Cloudy with Light Snow 22 -5.5 20 -6.6 92 92 NNE 15 24 29.78 1008 3 4 0.00 0.03
1:15 am 01:15 Cloudy with Light Snow 21 -6 19 -7 93 93 NNE 16 26 29.80 1009 3 5 0.00 0.03
1:56 am 01:56 Cloudy with Light Snow 21 -6.1 19 -7.2 92 92 NNE 13 20 29.79 1009 3 5 0.00 0.03
2:03 am 02:03 Cloudy with Light Snow 21 -6 19 -7 93 93 NNE 14 22 29.83 1010 2 3 0.00 0.03
2:10 am 02:10 Cloudy with Light Snow 21 -6 19 -7 93 93 NNE 13 20 29.83 1010 1 2 0.00 0.03
2:17 am 02:17 Cloudy with Light Snow 21 -6 19 -7 93 93 NNE 13 20 29.83 1010 1 1 0.00 0.03
2:29 am 02:29 Cloudy with Light Snow 21 -6 19 -7 93 93 NNE 14 22 29.83 1010 1 2 0.00 0.03
2:42 am 02:42 Cloudy with Light Snow 21 -6 19 -7 93 93 NNE 12 19 29.83 1010 2 2 0.00 0.03
2:56 am 02:56 Cloudy with Light Snow 21 -6.1 19 -7.2 92 92 NNE 15 24 29.79 1009 3 4 0.00 0.03
3:15 am 03:15 Cloudy with Light Snow 21 -6 18 -8 86 86 NNE 14 22 29.83 1010 2 3 0.00 0.03
3:21 am 03:21 Cloudy with Light Snow 21 -6 18 -8 86 86 NNE 13 20 29.83 1010 2 3 0.00 0.03
3:31 am 03:31 Cloudy with Light Snow 21 -6 18 -8 86 86 NNE 15 24 29.83 1010 3 4 0.00 0.03
3:42 am 03:42 Cloudy with Light Snow 21 -6 18 -8 86 86 NNE 12 19 29.83 1010 3 4 0.00 0.03
3:56 am 03:56 Cloudy with Light Snow 21 -6.1 18 -7.7 89 89 NNE 12 19 29.80 1009 1 2 0.00 0.03
4:05 am 04:05 Cloudy with Light Snow 21 -6 18 -8 86 86 N 12 19 29.83 1010 2 2 0.00 0.03
4:18 am 04:18 Cloudy with Light Snow 21 -6 18 -8 86 86 N 10 17 29.83 1010 3 4 0.00 0.03
4:21 am 04:21 Cloudy with Light Snow 21 -6 18 -8 86 86 N 9 15 29.83 1010 3 5 0.00 0.03
4:56 am 04:56 Cloudy with Light Snow 20 -6.6 18 -7.7 92 92 N 12 19 29.81 1010 3 5 0.00 0.03
4:59 am 04:59 Cloudy with Light Snow 19 -7 18 -8 93 93 N 14 22 29.85 1011 3 4 0.00 0.03
5:09 am 05:09 Cloudy with Light Snow 19 -7 18 -8 93 93 N 14 22 29.88 1012 2 3 0.00 0.03
5:12 am 05:12 Mostly Cloudy with Light Snow 19 -7 18 -8 93 93 N 14 22 29.88 1012 3 5 0.00 0.03
5:47 am 05:47 Cloudy 19 -7 18 -8 93 93 N 15 24 29.88 1012 8 13 0.00 0.03
5:56 am 05:56 Cloudy 20 -6.6 17 -8.3 88 88 N 13 20 29.83 1010 9 14 0.00 0.03
6:56 am 06:56 Cloudy 19 -7.2 16 -8.8 88 88 NNW 9 15 29.85 1011 9 14 0.00 0.00
7:44 am 07:44 Mostly Cloudy 16 -9 12 -11 86 86 VRB 7 11 29.91 1013 8 13 0.00 0.00
7:56 am 07:56 Partly Cloudy 16 -8.8 13 -10.5 88 88 NNW 9 15 29.87 1012 8 13 0.00 0.00
8:56 am 08:56 Cloudy 17 -8.3 13 -10.5 84 84 NNW 10 17 29.89 1012 7 11 0.00 0.00
9:56 am 09:56 Partly Cloudy 18 -7.7 13 -10.5 81 81 NW 15 24 29.92 1013 8 13 0.00 0.00
10:56 am 10:56 Cloudy 17 -8.3 12 -11.1 80 80 NNW 15 24 29.94 1014 7 11 0.00 0.00
11:56 am 11:56 Cloudy 18 -7.7 14 -10 84 84 NNW 12 19 29.93 1014 7 11 0.00 0.00
12:56 pm 12:56 Mostly Cloudy 19 -7.2 14 -10 81 81 NW 10 17 29.92 1013 7 11 0.00 0.00
1:18 pm 13:18 Partly Cloudy 19 -7 14 -10 79 79 WNW 12 19 29.97 1015 7 11 0.00 0.00
1:56 pm 13:56 Sunny 20 -6.6 12 -11.1 71 71 NW 13 20 29.92 1013 7 11 0.00 0.00
2:56 pm 14:56 Sunny 20 -6.6 12 -11.1 71 71 NW 12 19 29.91 1013 8 13 0.00 0.00
3:56 pm 15:56 Sunny 19 -7.2 11 -11.6 71 71 W 8 13 29.93 1013 8 13 0.00 0.00
4:56 pm 16:56 Sunny 19 -7.2 11 -11.6 71 71 NNW 8 13 29.95 1014 8 13 0.00 0.00
5:56 pm 17:56 Clear 17 -8.3 11 -11.6 77 77 SSW 6 9 29.98 1015 8 13 0.00 0.00
6:56 pm 18:56 Clear 14 -10 11 -11.6 88 88 SSE 3 6 29.98 1015 9 14 0.00 0.00
7:56 pm 19:56 Clear 11 -11.6 8 -13.3 87 87 Calm 30.00 1016 8 13 0.00 0.00
8:56 pm 20:56 Clear with Mist and Fog 9 -12.7 7 -13.8 92 92 Calm 30.00 1016 6 10 0.00 0.00
9:56 pm 21:56 Clear with Mist and Fog 8 -13.3 6 -14.4 92 92 Calm 30.01 1016 4 6 0.00 0.00
10:22 pm 22:22 Mostly Cloudy with Mist and Fog 7 -14 3 -16 85 85 Calm 30.06 1018 2 3 0.00 0.00
10:26 pm 22:26 Mostly Cloudy with Mist and Fog 5 -15 1 -17 85 85 Calm 30.06 1018 1 2 0.00 0.00
10:30 pm 22:30 Mostly Cloudy with Freezing Fog 3 -16 1 -17 92 92 Calm 30.06 1018 1 1 0.00 0.00
10:38 pm 22:38 Mostly Cloudy with Freezing Fog 3 -16 0 -18 85 85 Calm 30.06 1018 5 8 0.00 0.00
10:56 pm 22:56 Mostly Cloudy with Freezing Fog 3 -16.1 -1 -18.3 83 83 SSE 5 7 30.01 1016 5 8 0.00 0.00
11:20 pm 23:20 Cloudy with Mist and Fog 1 -17 0 -18 92 92 SE 5 7 30.09 1019 1 1 0.00 0.00
11:22 pm 23:22 Cloudy with Mist and Fog 1 -17 0 -18 92 92 SE 5 7 30.09 1019 2 3 0.00 0.00
11:29 pm 23:29 Cloudy with Mist and Fog 1 -17 0 -18 92 92 SE 5 7 30.09 1019 5 8 0.00 0.00
11:56 pm 23:56 Cloudy with Mist and Fog 5 -15 2 -16.6 88 88 SSE 5 7 30.01 1016 5 8 0.00 0.00

Powered by AerisWeather